451  
ASUS43 KTOP 232308  
RWRKS  
 
WEATHER ROUNDUP FOR KANSAS  
NATIONAL WEATHER SERVICE GOODLAND KS  
600 PM CDT SAT MAR 23 2019  
 
NOTE: "FAIR" INDICATES FEW OR NO CLOUDS BELOW 12,000 FEET WITH NO  
SIGNIFICANT WEATHER AND/OR S TO VISIBILITY
.  
 
KSZ001>006-013>018-027>032-041>047-240000-  
NORTHWEST KANSAS  
 
CITY SKY/WX TMP DP RH WIND PRES REMARKS
 
GOODLAND LGT RAIN 45 42 89 NW15 29.87R  
HAYS CLOUDY 60 41 49 SW18 29.83R  
HILL CITY N/A 54 43 66 W14G24 29.82R  
RUSSELL CLOUDY 62 44 51 SW18 29.80F  

 
 
KSZ061>065-074>080-084>089-240000-  
SOUTHWEST KANSAS  
 
CITY SKY/WX TMP DP RH WIND PRES REMARKS
 
DODGE CITY MOSUNNY 63 37 38 W21G35 29.88R  
ELKHART FAIR 66 35 32 NW6 29.89F  
GARDEN CITY SUNNY 58 36 43 W26G36 29.87R  
GREAT BEND PTSUNNY 63 39 41 SW20G26 29.84R  
LIBERAL SUNNY 64 36 35 NW8 29.91R  
PRATT MOSUNNY 66 36 32 SW12 29.88S  

 
 
KSZ066>073-081>083-090>101-240000-  
SOUTHEAST KANSAS  
 
CITY SKY/WX TMP DP RH WIND PRES REMARKS
 
CHANUTE CLOUDY 55 49 80 SE14 30.01R  
COFFEYVILLE LGT RAIN 52 50 93 SE10 30.02R FOG  
HUTCHINSON SUNNY 61 50 67 S14G24 29.89F  
MEDICINE LODGE N/A 63 52 67 SE12G20 29.88F  
NEWTON CLOUDY 59 49 69 S15 29.93S  
PARSONS LGT RAIN 52 50 93 SE9 30.03R FOG  
WICHITA INTL PTSUNNY 62 49 62 SE13 29.92F  
WICHITA JABRA PTSUNNY 59 48 67 SE16 29.93F  
WICHITA MCCONL MOSUNNY 61 48 63 E13 29.93  
WINFIELD MOSUNNY 59 49 69 SE10 29.95F  

 
 
KSZ007>012-019>026-033>040-048>060-102>105-240000-  
NORTHEAST KANSAS  
 
CITY SKY/WX TMP DP RH WIND PRES REMARKS
 
CONCORDIA MOSUNNY 58 48 69 SE22G31 29.86F  
EMPORIA CLOUDY 54 47 77 S20G28 29.97S  
LAWRENCE CLOUDY 57 47 69 S8 30.00S  
MANHATTAN CLOUDY 59 48 67 S13 29.92F  
MARYSVILLE PTSUNNY 57 50 77 SE15G21 29.92S  
OLATHE IND CLOUDY 57 47 69 S8 30.01S  
OLATHE EXE CLOUDY 56 47 71 SW9 30.01R  
SALINA MOSUNNY 61 47 59 SE17G28 29.88F  
TOPEKA BILLARD CLOUDY 57 46 66 S13 29.99S  
TOPEKA FORBES CLOUDY 56 46 69 S13 29.98F  

 
 
 
CLICK HERE TO GO TO PREVIOUS BULLETINS.

The Nexlab KS Page Main Text Page